This is the latest recevied weather packets stored in our database for station/object KN6CW-3. If no packets are shown the sender has not sent any weather packets the latest 10 day(s).
| Time | Temp. | Humidity | Pressure | Rain* | Wind** | Luminosity | Snow |
|---|---|---|---|---|---|---|---|
| 1777930392 | 20° C | 42% | 1008.8 hPa | 0 mm | - | 323 W/m² | - |
| 1777930092 | 19.44° C | 43% | 1008.9 hPa | 0 mm | - | 322 W/m² | - |
| 1777929791 | 19.44° C | 42% | 1009 hPa | 0 mm | - | 306 W/m² | - |
| 1777929491 | 20° C | 42% | 1009 hPa | 0 mm | - | 301 W/m² | - |
| 1777929191 | 20° C | 41% | 1009 hPa | 0 mm | - | 325 W/m² | - |
| 1777928891 | 19.44° C | 43% | 1009.1 hPa | 0 mm | - | 394 W/m² | - |
| 1777928591 | 20° C | 41% | 1009.1 hPa | 0 mm | - | 443 W/m² | - |
| 1777928290 | 20° C | 41% | 1008.9 hPa | 0 mm | - | 446 W/m² | - |
| 1777927990 | 20° C | 41% | 1009 hPa | 0 mm | - | 452 W/m² | - |
| 1777927689 | 20° C | 41% | 1009.2 hPa | 0 mm | - | 459 W/m² | - |
| 1777927389 | 20° C | 41% | 1009.3 hPa | 0 mm | - | 494 W/m² | - |
| 1777927089 | 20° C | 41% | 1009.3 hPa | 0 mm | - | 508 W/m² | - |
| 1777926788 | 20° C | 40% | 1009.3 hPa | 0 mm | - | 538 W/m² | - |
| 1777926488 | 19.44° C | 40% | 1009.6 hPa | 0 mm | - | 571 W/m² | - |
| 1777926188 | 20° C | 41% | 1009.6 hPa | 0 mm | - | 622 W/m² | - |
| 1777925888 | 19.44° C | 41% | 1009.5 hPa | 0 mm | - | 663 W/m² | - |
| 1777925588 | 19.44° C | 41% | 1009.6 hPa | 0 mm | - | 673 W/m² | - |
| 1777925287 | 18.89° C | 42% | 1009.6 hPa | 0 mm | - | 710 W/m² | - |
| 1777924987 | 18.89° C | 42% | 1009.7 hPa | 0 mm | - | 123 W/m² | - |
| 1777924687 | 18.89° C | 43% | 1009.7 hPa | 0 mm | - | 160 W/m² | - |
| 1777924387 | 19.44° C | 41% | 1009.8 hPa | 0 mm | - | 125 W/m² | - |
| 1777924088 | 20° C | 40% | 1009.8 hPa | 0 mm | - | 752 W/m² | - |
| 1777923785 | 19.44° C | 42% | 1009.8 hPa | 0 mm | - | 745 W/m² | - |
| 1777923485 | 19.44° C | 41% | 1009.9 hPa | 0 mm | - | 810 W/m² | - |
| 1777922885 | 19.44° C | 41% | 1010 hPa | 0 mm | - | 823 W/m² | - |
* Rain latest hour (hover to see other rain measurements)
** Current wind speed in m/s (hover to see current wind gust speed)